Jackson, KY

7:37 AM EST on December 12, 2017 (GMT -0500)
Carroll

Weather History for KJKL - December, 2011

Change the Weather History Date:

Friday, December 30, 2011

  Actual Average Record
Temperature  
Mean Temperature 51 °F 35 °F  
Max Temperature 59 °F 43 °F 68 °F (1990)
Min Temperature 43 °F 27 °F 0 °F (1983)
Degree Days  
Heating Degree Days 14 30  
Month to date heating degree days 642 805  
Since 1 July heating degree days 1359 1605  
Cooling Degree Days 0 0  
Month to date cooling degree days 0 0  
Year to date cooling degree days 1255 1154  
Moisture  
Dew Point 36 °F    
Average Humidity 59    
Maximum Humidity 70    
Minimum Humidity 47    
Precipitation  
Precipitation T in 0.12 in 2.29 in (1990)
Month to date precipitation 4.18 4.06  
Year to date precipitation 60.01 48.22  
Snow  
Snow 0.00 in 0.20 in 2.00 in (2000)
Month to date snowfall 0.4 4.7  
Since 1 July snowfall 0.4 5.3  
Snow Depth 0.00 in    
Sea Level Pressure  
Sea Level Pressure 29.86 in    
Wind  
Wind Speed 6 mph (SSW)    
Max Wind Speed 17 mph    
Max Gust Speed 32 mph    
Visibility 10 miles    
Events Rain    
T = Trace of Precipitation, MM = Missing Value Source: NWS Daily Summary

Daily Weather History Graph

Daily Weather History Graph

Search for Another Location

Airport or City:

Trip Planner

Search our weather history database for the weather conditions in past years. The results will help you decide how hot, cold, wet, or windy it might be!

Date:

Astronomy

Dec. 30, 2011 Rise Set
Actual Time 7:47 AM EST 5:23 PM EST
Civil Twilight 7:18 AM EST 5:53 PM EST
Nautical Twilight 6:45 AM EST 6:25 PM EST
Astronomical Twilight 6:13 AM EST 6:57 PM EST
Moon 11:14 AM EST (12/30) 11:50 PM EST (12/30)
Length of Visible Light 10h 34m
Length of Day
9h 36m
Waxing Crescent, 35% of the Moon is Illuminated
Dec 30
Waxing Crescent
Jan 1
First Quarter
Jan 9
Full
Jan 16
Last Quarter
Jan 23
New

Hourly Weather History & Observations

Time (EST) Temp. Windchill Dew Point Humidity Pressure Visibility Wind Dir Wind Speed Gust Speed Precip Events Conditions
12:53 AM 44.1 °F 41.5 °F 28.0 °F 53% 29.94 in 10.0 mi SW 4.6 mph - N/A   Clear
1:53 AM 44.1 °F 41.5 °F 28.9 °F 55% 29.94 in 10.0 mi Variable 4.6 mph - N/A   Clear
2:53 AM 44.1 °F 40.8 °F 30.0 °F 58% 29.94 in 10.0 mi South 5.8 mph - N/A   Clear
3:53 AM 44.1 °F 41.5 °F 30.0 °F 58% 29.94 in 10.0 mi SSW 4.6 mph - N/A   Clear
4:53 AM 44.1 °F 42.5 °F 30.9 °F 60% 29.94 in 10.0 mi SSW 3.5 mph - N/A   Scattered Clouds
5:03 AM 44.6 °F 42.2 °F 30.2 °F 57% 29.93 in 10.0 mi SSW 4.6 mph - N/A   Mostly Cloudy
5:53 AM 44.1 °F 42.5 °F 32.0 °F 63% 29.95 in 10.0 mi SSW 3.5 mph - N/A   Overcast
6:53 AM 44.6 °F - 33.8 °F 66% 29.94 in 10.0 mi Calm Calm - N/A   Overcast
7:04 AM 44.6 °F - 33.8 °F 66% 29.93 in 10.0 mi Calm Calm - N/A   Mostly Cloudy
7:53 AM 43.0 °F 41.3 °F 34.0 °F 71% 29.93 in 10.0 mi SSW 3.5 mph - N/A   Scattered Clouds
8:53 AM 46.0 °F 43.9 °F 35.1 °F 66% 29.94 in 10.0 mi Variable 4.6 mph - N/A   Mostly Cloudy
9:53 AM 48.9 °F - 36.0 °F 61% 29.93 in 10.0 mi Variable 5.8 mph - N/A   Clear
10:53 AM 51.1 °F - 36.0 °F 56% 29.91 in 10.0 mi South 6.9 mph - N/A   Overcast
11:53 AM 57.0 °F - 37.9 °F 49% 29.83 in 10.0 mi SSW 9.2 mph 18.4 mph N/A   Mostly Cloudy
12:53 PM 55.9 °F - 37.9 °F 51% 29.78 in 10.0 mi South 13.8 mph 25.3 mph N/A   Mostly Cloudy
1:53 PM 57.9 °F - 37.9 °F 47% 29.73 in 10.0 mi South 15.0 mph 25.3 mph N/A   Mostly Cloudy
2:53 PM 57.0 °F - 39.0 °F 51% 29.73 in 10.0 mi Variable 5.8 mph - N/A   Overcast
3:53 PM 55.0 °F - 39.9 °F 57% 29.73 in 10.0 mi South 9.2 mph 18.4 mph N/A   Overcast
4:53 PM 55.0 °F - 42.1 °F 62% 29.75 in 10.0 mi Variable 5.8 mph - N/A   Overcast
5:53 PM 55.0 °F - 42.1 °F 62% 29.75 in 10.0 mi Variable 4.6 mph 19.6 mph N/A   Mostly Cloudy
6:53 PM 54.0 °F - 42.1 °F 64% 29.78 in 10.0 mi Variable 3.5 mph - N/A   Mostly Cloudy
7:53 PM 54.0 °F - 42.1 °F 64% 29.81 in 10.0 mi Variable 5.8 mph - N/A   Overcast
8:53 PM 54.0 °F - 41.0 °F 62% 29.82 in 10.0 mi SW 10.4 mph 24.2 mph N/A   Mostly Cloudy
9:53 PM 53.1 °F - 39.0 °F 59% 29.82 in 10.0 mi Variable 4.6 mph - N/A   Overcast
10:53 PM 53.1 °F - 39.0 °F 59% 29.84 in 10.0 mi WSW 11.5 mph 26.5 mph N/A   Overcast
11:10 PM 46.4 °F 41.1 °F 41.0 °F 81% 29.84 in 10.0 mi West 11.5 mph 23.0 mph 0.00 in Rain Light Rain
11:53 PM 50.0 °F - 39.0 °F 66% 29.83 in 10.0 mi SW 8.1 mph 20.7 mph 0.00 in   Scattered Clouds